| time (UTC) | temp F | wind direction | speed MPH | gust MPH | rain 1hr in | rain 24hr in | rain mn in | humidity % | barometer mb |
| 20260504050404 | 67 | 155 | 7.0 | 14.0 | 0.00 | 0.00 | 0.00 | 46 | 1014.4 |
| 20260504045904 | 67 | 166 | 7.0 | 12.0 | 0.00 | 0.00 | 0.00 | 46 | 1014.4 |
| 20260504045404 | 67 | 166 | 6.0 | 12.0 | 0.00 | 0.00 | 0.00 | 46 | 1014.3 |
| 20260504044905 | 67 | 156 | 6.0 | 9.0 | 0.00 | 0.00 | 0.00 | 46 | 1014.4 |
| 20260504043905 | 67 | 176 | 6.0 | 10.0 | 0.00 | 0.00 | 0.00 | 45 | 1014.4 |
| 20260504043405 | 67 | 165 | 5.0 | 9.0 | 0.00 | 0.00 | 0.00 | 45 | 1014.5 |
| 20260504042904 | 68 | 166 | 7.0 | 12.0 | 0.00 | 0.00 | 0.00 | 45 | 1014.4 |
| 20260504042404 | 68 | 170 | 6.0 | 12.0 | 0.00 | 0.00 | 0.00 | 44 | 1014.5 |
| 20260504041904 | 68 | 161 | 6.0 | 12.0 | 0.00 | 0.00 | 0.00 | 44 | 1014.4 |
| 20260504041404 | 68 | 171 | 7.0 | 12.0 | 0.00 | 0.00 | 0.00 | 44 | 1014.4 |
| 20260504040904 | 68 | 169 | 6.0 | 10.0 | 0.00 | 0.00 | 0.00 | 44 | 1014.5 |
| 20260504040405 | 68 | 176 | 6.0 | 10.0 | 0.00 | 0.00 | 0.00 | 45 | 1014.5 |
| 20260504035904 | 68 | 168 | 6.0 | 12.0 | 0.00 | 0.00 | 0.00 | 44 | 1014.5 |
| 20260504034405 | 68 | 167 | 6.0 | 12.0 | 0.00 | 0.00 | 0.00 | 44 | 1014.5 |
| 20260504033904 | 68 | 155 | 6.0 | 12.0 | 0.00 | 0.00 | 0.00 | 44 | 1014.5 |
| 20260504033404 | 68 | 160 | 5.0 | 9.0 | 0.00 | 0.00 | 0.00 | 44 | 1014.5 |
| 20260504032904 | 68 | 165 | 6.0 | 9.0 | 0.00 | 0.00 | 0.00 | 44 | 1014.5 |
| 20260504032404 | 68 | 167 | 6.0 | 10.0 | 0.00 | 0.00 | 0.00 | 43 | 1014.4 |
| 20260504031905 | 68 | 159 | 5.0 | 10.0 | 0.00 | 0.00 | 0.00 | 43 | 1014.3 |
| 20260504030904 | 69 | 147 | 4.0 | 9.0 | 0.00 | 0.00 | 0.00 | 42 | 1014.2 |
| 20260504030404 | 69 | 143 | 5.0 | 9.0 | 0.00 | 0.00 | 0.00 | 42 | 1014.2 |
| 20260504025904 | 69 | 147 | 3.0 | 7.0 | 0.00 | 0.00 | 0.00 | 42 | 1014.2 |
| 20260504025404 | 69 | 151 | 3.0 | 8.0 | 0.00 | 0.00 | 0.00 | 42 | 1014.3 |
| 20260504024408 | 69 | 149 | 3.0 | 8.0 | 0.00 | 0.00 | 0.00 | 41 | 1014.3 |
| 20260504023904 | 70 | 156 | 5.0 | 9.0 | 0.00 | 0.00 | 0.00 | 41 | 1014.3 |
| 20260504022904 | 70 | 156 | 3.0 | 8.0 | 0.00 | 0.00 | 0.00 | 41 | 1014.3 |
| 20260504021404 | 71 | 168 | 4.0 | 7.0 | 0.00 | 0.00 | 0.00 | 39 | 1014.2 |
| 20260504020904 | 71 | 161 | 4.0 | 8.0 | 0.00 | 0.00 | 0.00 | 39 | 1014.2 |
| 20260504015904 | 72 | 156 | 4.0 | 8.0 | 0.00 | 0.00 | 0.00 | 38 | 1014.1 |
| 20260504015404 | 72 | 166 | 3.0 | 6.0 | 0.00 | 0.00 | 0.00 | 37 | 1014.1 |
| 20260504014904 | 72 | 150 | 4.0 | 7.0 | 0.00 | 0.00 | 0.00 | 37 | 1014.2 |
| 20260504014404 | 73 | 147 | 3.0 | 7.0 | 0.00 | 0.00 | 0.00 | 37 | 1014.2 |
| 20260504013904 | 73 | 169 | 5.0 | 12.0 | 0.00 | 0.00 | 0.00 | 36 | 1014.2 |
| 20260504013404 | 73 | 153 | 5.0 | 10.0 | 0.00 | 0.00 | 0.00 | 36 | 1014.1 |
| 20260504012905 | 73 | 145 | 5.0 | 8.0 | 0.00 | 0.00 | 0.00 | 36 | 1014.1 |
| 20260504012404 | 74 | 168 | 5.0 | 10.0 | 0.00 | 0.00 | 0.00 | 35 | 1014.1 |
| 20260504011904 | 74 | 165 | 5.0 | 9.0 | 0.00 | 0.00 | 0.00 | 35 | 1014.0 |
| 20260504011405 | 74 | 160 | 6.0 | 10.0 | 0.00 | 0.00 | 0.00 | 34 | 1014.0 |
| 20260504010404 | 75 | 158 | 4.0 | 8.0 | 0.00 | 0.00 | 0.00 | 33 | 1014.0 |
| 20260504005904 | 75 | 170 | 4.0 | 8.0 | 0.00 | 0.00 | 0.00 | 32 | 1013.9 |
| 20260504005404 | 76 | 170 | 5.0 | 10.0 | 0.00 | 0.00 | 0.00 | 31 | 1013.9 |
| 20260504004904 | 76 | 171 | 5.0 | 10.0 | 0.00 | 0.00 | 0.00 | 31 | 1013.9 |
| 20260504004404 | 76 | 168 | 6.0 | 10.0 | 0.00 | 0.00 | 0.00 | 30 | 1014.0 |
| 20260504003905 | 76 | 158 | 6.0 | 10.0 | 0.00 | 0.00 | 0.00 | 29 | 1013.9 |
| 20260504003405 | 77 | 161 | 6.0 | 12.0 | 0.00 | 0.00 | 0.00 | 29 | 1013.9 |
| 20260504002904 | 77 | 163 | 6.0 | 12.0 | 0.00 | 0.00 | 0.00 | 29 | 1013.9 |
| 20260504002404 | 77 | 165 | 7.0 | 12.0 | 0.00 | 0.00 | 0.00 | 29 | 1013.9 |
| 20260504001904 | 77 | 171 | 8.0 | 17.0 | 0.00 | 0.00 | 0.00 | 29 | 1014.0 |
| 20260504001404 | 77 | 167 | 6.0 | 16.0 | 0.00 | 0.00 | 0.00 | 29 | 1014.1 |
| 20260504000904 | 78 | 183 | 9.0 | 14.0 | 0.00 | 0.00 | 0.00 | 28 | 1014.1 |
| 20260504000404 | 78 | 180 | 8.0 | 16.0 | 0.00 | 0.00 | 0.00 | 28 | 1014.1 |
| 20260503235904 | 78 | 179 | 9.0 | 16.0 | 0.00 | 0.00 | 0.00 | 30 | 1014.1 |
| 20260503235404 | 78 | 167 | 8.0 | 13.0 | 0.00 | 0.00 | 0.00 | 29 | 1014.1 |
| 20260503234904 | 78 | 166 | 9.0 | 17.0 | 0.00 | 0.00 | 0.00 | 28 | 1014.2 |
| 20260503234404 | 78 | 180 | 9.0 | 14.0 | 0.00 | 0.00 | 0.00 | 29 | 1014.2 |
| 20260503233904 | 78 | 185 | 10.0 | 16.0 | 0.00 | 0.00 | 0.00 | 28 | 1014.2 |
| 20260503233405 | 79 | 180 | 7.0 | 16.0 | 0.00 | 0.00 | 0.00 | 28 | 1014.3 |
| 20260503232905 | 79 | 183 | 7.0 | 14.0 | 0.00 | 0.00 | 0.00 | 26 | 1014.3 |
| 20260503232405 | 79 | 157 | 8.0 | 15.0 | 0.00 | 0.00 | 0.00 | 26 | 1014.3 |
| 20260503231904 | 79 | 171 | 9.0 | 16.0 | 0.00 | 0.00 | 0.00 | 26 | 1014.4 |
| 20260503231404 | 80 | 174 | 11.0 | 18.0 | 0.00 | 0.00 | 0.00 | 26 | 1014.4 |
| 20260503230904 | 80 | 165 | 10.0 | 15.0 | 0.00 | 0.00 | 0.00 | 25 | 1014.4 |
| 20260503230404 | 80 | 148 | 9.0 | 14.0 | 0.00 | 0.00 | 0.00 | 26 | 1014.3 |
| 20260503225905 | 80 | 175 | 10.0 | 17.0 | 0.00 | 0.00 | 0.00 | 25 | 1014.4 |
| 20260503224904 | 81 | 153 | 8.0 | 15.0 | 0.00 | 0.00 | 0.00 | 27 | 1014.5 |
| 20260503224405 | 81 | 175 | 10.0 | 18.0 | 0.00 | 0.00 | 0.00 | 27 | 1014.5 |
| 20260503223905 | 81 | 150 | 11.0 | 17.0 | 0.00 | 0.00 | 0.00 | 27 | 1014.5 |
| 20260503223404 | 81 | 148 | 12.0 | 17.0 | 0.00 | 0.00 | 0.00 | 27 | 1014.6 |
| 20260503222904 | 81 | 166 | 12.0 | 17.0 | 0.00 | 0.00 | 0.00 | 27 | 1014.6 |
| 20260503222404 | 81 | 171 | 9.0 | 17.0 | 0.00 | 0.00 | 0.00 | 26 | 1014.7 |
| 20260503221905 | 82 | 160 | 7.0 | 12.0 | 0.00 | 0.00 | 0.00 | 28 | 1014.7 |
| 20260503220904 | 82 | 164 | 11.0 | 18.0 | 0.00 | 0.00 | 0.00 | 26 | 1014.8 |
| 20260503220404 | 82 | 150 | 9.0 | 20.0 | 0.00 | 0.00 | 0.00 | 26 | 1014.8 |
| 20260503215905 | 82 | 169 | 11.0 | 17.0 | 0.00 | 0.00 | 0.00 | 26 | 1014.8 |
| 20260503214404 | 83 | 176 | 7.0 | 16.0 | 0.00 | 0.00 | 0.00 | 27 | 1015.0 |
| 20260503213904 | 83 | 154 | 9.0 | 13.0 | 0.00 | 0.00 | 0.00 | 27 | 1015.1 |
| 20260503213404 | 82 | 208 | 9.0 | 15.0 | 0.00 | 0.00 | 0.00 | 26 | 1015.1 |
| 20260503212405 | 83 | 182 | 10.0 | 18.0 | 0.00 | 0.00 | 0.00 | 26 | 1015.3 |
| 20260503211904 | 83 | 197 | 7.0 | 13.0 | 0.00 | 0.00 | 0.00 | 27 | 1015.3 |
| 20260503211404 | 83 | 184 | 5.0 | 18.0 | 0.00 | 0.00 | 0.00 | 26 | 1015.4 |
| 20260503205405 | 82 | 184 | 9.0 | 16.0 | 0.00 | 0.00 | 0.00 | 23 | 1015.8 |
| 20260503204904 | 82 | 186 | 6.0 | 14.0 | 0.00 | 0.00 | 0.00 | 24 | 1015.9 |
| 20260503204404 | 82 | 216 | 6.0 | 16.0 | 0.00 | 0.00 | 0.00 | 25 | 1016.0 |
| 20260503203404 | 82 | 170 | 10.0 | 17.0 | 0.00 | 0.00 | 0.00 | 24 | 1016.2 |
| 20260503202404 | 83 | 180 | 8.0 | 14.0 | 0.00 | 0.00 | 0.00 | 24 | 1016.3 |
| 20260503201904 | 83 | 188 | 10.0 | 17.0 | 0.00 | 0.00 | 0.00 | 23 | 1016.5 |
| 20260503200904 | 83 | 189 | 6.0 | 15.0 | 0.00 | 0.00 | 0.00 | 24 | 1016.6 |
| 20260503200404 | 83 | 154 | 9.0 | 14.0 | 0.00 | 0.00 | 0.00 | 23 | 1016.6 |
| 20260503195904 | 83 | 164 | 7.0 | 16.0 | 0.00 | 0.00 | 0.00 | 25 | 1016.7 |
| 20260503195404 | 83 | 189 | 9.0 | 17.0 | 0.00 | 0.00 | 0.00 | 26 | 1016.8 |
| 20260503194905 | 83 | 161 | 10.0 | 16.0 | 0.00 | 0.00 | 0.00 | 24 | 1016.9 |
| 20260503194410 | 83 | 210 | 5.0 | 12.0 | 0.00 | 0.00 | 0.00 | 25 | 1016.9 |
| 20260503193904 | 82 | 190 | 6.0 | 13.0 | 0.00 | 0.00 | 0.00 | 26 | 1017.0 |
| 20260503193404 | 82 | 199 | 9.0 | 17.0 | 0.00 | 0.00 | 0.00 | 27 | 1017.1 |
| 20260503192905 | 82 | 165 | 10.0 | 18.0 | 0.00 | 0.00 | 0.00 | 27 | 1017.2 |
| 20260503192404 | 82 | 179 | 10.0 | 15.0 | 0.00 | 0.00 | 0.00 | 28 | 1017.3 |
| 20260503191904 | 82 | 171 | 7.0 | 13.0 | 0.00 | 0.00 | 0.00 | 27 | 1017.3 |
| 20260503191405 | 83 | 224 | 7.0 | 16.0 | 0.00 | 0.00 | 0.00 | 26 | 1017.4 |
| 20260503190904 | 83 | 205 | 6.0 | 13.0 | 0.00 | 0.00 | 0.00 | 29 | 1017.5 |
| 20260503190404 | 82 | 187 | 9.0 | 16.0 | 0.00 | 0.00 | 0.00 | 29 | 1017.4 |
| 20260503185904 | 82 | 200 | 5.0 | 10.0 | 0.00 | 0.00 | 0.00 | 29 | 1017.6 |
| 20260503185404 | 83 | 193 | 8.0 | 14.0 | 0.00 | 0.00 | 0.00 | 29 | 1017.6 |
| 20260503184904 | 82 | 196 | 6.0 | 16.0 | 0.00 | 0.00 | 0.00 | 30 | 1017.6 |
| 20260503183404 | 82 | 196 | 6.0 | 15.0 | 0.00 | 0.00 | 0.00 | 30 | 1017.9 |
| 20260503182904 | 82 | 167 | 8.0 | 14.0 | 0.00 | 0.00 | 0.00 | 29 | 1017.9 |
| 20260503182404 | 82 | 179 | 5.0 | 12.0 | 0.00 | 0.00 | 0.00 | 30 | 1018.1 |
| 20260503181904 | 82 | 200 | 7.0 | 13.0 | 0.00 | 0.00 | 0.00 | 31 | 1018.2 |
| 20260503181404 | 82 | 186 | 8.0 | 15.0 | 0.00 | 0.00 | 0.00 | 32 | 1018.3 |
| 20260503180904 | 82 | 202 | 7.0 | 13.0 | 0.00 | 0.00 | 0.00 | 33 | 1018.4 |
| 20260503175904 | 82 | 199 | 6.0 | 12.0 | 0.00 | 0.00 | 0.00 | 31 | 1018.6 |
| 20260503175404 | 82 | 203 | 7.0 | 12.0 | 0.00 | 0.00 | 0.00 | 32 | 1018.7 |
| 20260503174904 | 81 | 225 | 6.0 | 12.0 | 0.00 | 0.00 | 0.00 | 33 | 1018.7 |
| 20260503174404 | 81 | 222 | 7.0 | 15.0 | 0.00 | 0.00 | 0.00 | 31 | 1018.9 |
| 20260503173904 | 81 | 234 | 7.0 | 14.0 | 0.00 | 0.00 | 0.00 | 33 | 1018.9 |
| 20260503173404 | 81 | 213 | 7.0 | 14.0 | 0.00 | 0.00 | 0.00 | 32 | 1019.1 |
| 20260503172904 | 81 | 204 | 6.0 | 13.0 | 0.00 | 0.00 | 0.00 | 33 | 1019.1 |
| 20260503172404 | 81 | 203 | 8.0 | 12.0 | 0.00 | 0.00 | 0.00 | 32 | 1019.2 |
| 20260503171905 | 81 | 193 | 9.0 | 13.0 | 0.00 | 0.00 | 0.00 | 32 | 1019.3 |
| 20260503171404 | 81 | 214 | 6.0 | 12.0 | 0.00 | 0.00 | 0.00 | 33 | 1019.3 |
| 20260503170904 | 80 | 200 | 7.0 | 13.0 | 0.00 | 0.00 | 0.00 | 34 | 1019.4 |
| 20260503170404 | 80 | 217 | 7.0 | 12.0 | 0.00 | 0.00 | 0.00 | 34 | 1019.5 |
| 20260503150904 | 72 | 217 | 5.0 | 8.0 | 0.00 | 0.00 | 0.00 | 45 | 1019.9 |
| 20260503150404 | 71 | 205 | 4.0 | 8.0 | 0.00 | 0.00 | 0.00 | 45 | 1019.9 |
| 20260503131404 | 59 | 170 | 5.0 | 5.0 | 0.00 | 0.00 | 0.00 | 56 | 1019.7 |
| 20260503130904 | 59 | 162 | 3.0 | 5.0 | 0.00 | 0.00 | 0.00 | 56 | 1019.6 |
| 20260503130405 | 58 | 139 | 2.0 | 5.0 | 0.00 | 0.00 | 0.00 | 58 | 1019.7 |
| 20260503110404 | 53 | 182 | 0.0 | 2.0 | 0.00 | 0.00 | 0.00 | 57 | 1018.8 |
| 20260503090404 | 55 | 181 | 0.0 | 0.0 | 0.00 | 0.00 | 0.00 | 54 | 1018.5 |
| 20260503081404 | 56 | 182 | 1.0 | 2.0 | 0.00 | 0.00 | 0.00 | 53 | 1018.4 |
| 20260503080903 | 57 | 182 | 1.0 | 2.0 | 0.00 | 0.00 | 0.00 | 52 | 1018.4 |
| 20260503080405 | 57 | 182 | 1.0 | 2.0 | 0.00 | 0.00 | 0.00 | 53 | 1018.4 |
| 20260503072904 | 57 | 186 | 3.0 | 5.0 | 0.00 | 0.00 | 0.00 | 52 | 1018.5 |
| 20260503071904 | 57 | 186 | 2.0 | 3.0 | 0.00 | 0.00 | 0.00 | 52 | 1018.5 |
| 20260503071407 | 58 | 177 | 2.0 | 3.0 | 0.00 | 0.00 | 0.00 | 51 | 1018.6 |